NOAA 16 DEB

Satellite information

Favourite Embed

Satellite Type and Status

DEBRISIN ORBIT

Key statistics

Satellite NOAA 16 DEB at a glance.

Uptime

9054

Days in orbit

Revolutions

≈ 14.4

Per day

Orbit

SSO

Sun Synchronous Orbit

Inclination

98.9

Latest

Satellite identification and parameters

Extended collection of information and parameters for NOAA 16 DEB.

Object identification

Identified? True

Debris? True

Object name: NOAA 16 DEB

International designator: 2000-055BM

Object number (NORAD): 41130

Object ID (CCSDS): 41130

Country: UNITED STATES OF AMERICA (US)

Current information (Y/N): Y

RCS size: SMALL

Orbital parameters

Period: 100.239 minutes

Inclination: 98.9231 deg

SMA: 7147.993 km

Apoapsis: 785.127 km

Periapsis: 754.59 km

RAAN: 324.1104 deg

Eccentricy: 0.0021361

Argument of periapsis: 100.9395 deg

Mean anomaly: 259.4194 deg

Mean motion: 14.36569186 rev/day

Mean motion (dot): 0.00003933 rev/day2

B* drag term: 0.0013502 1/REarth

Two-line elements (TLE)

Creation date: July 4, 2025, 6:39 p.m.

Reference frame: TEME

Reference center: EARTH

Epoch: July 4, 2025, 4:27 a.m. UTC

TLE line 0: 0 NOAA 16 DEB

TLE line 1: 1 41130U 00055BM 25185.18556878 .00003933 00000-0 13502-2 0 9999

TLE line 2: 2 41130 98.9231 324.1104 0021361 100.9395 259.4194 14.36569186496774

Live tracking on map

Real-time ground track for satellite NOAA 16 DEB.

In-orbit conjunctions

A list of the most updated potential collisions computed for object NOAA 16 DEB.

Target Orbit TCA Probability of collision Miss distance Type
RITE TARGET 1 SSO 2025-01-22 02:23:29 0.001396764 159.0 (m) PAYLOAD
CZ-6A DEB LEO 2025-01-13 03:56:06 0.0001713463 747.0 (m) DEBRIS
CZ-6A DEB LEO 2025-01-05 22:48:07 0.0001324781 428.0 (m) DEBRIS
COSMOS 407 LEO 2025-01-04 00:59:36 0.0003828878 158.0 (m) PAYLOAD
CZ-6A DEB LEO 2024-11-18 06:00:40 0.000451434 68.0 (m) DEBRIS

Associated space launch

The NOAA K, L and M POES satellites begin the fifth generation of improved environmental monitoring in support of NOAA missions. The instrument payload has significant improvements and additions/deletions. The instrument changes have effected the spacecraft subsystems and data formats.

NOAA 16 DEB was lifted into orbit during the mission ‘Titan II SLV | NOAA 16’, on board a Titan II SLV space rocket.

The launch took place on Sept. 21, 2000, 10:22 a.m. from Space Launch Complex 4W.

For more information about the launch, click the button.

Launch to space Titan II SLV | NOAA 16
Titan II SLV | NOAA 16

Agency: N/A

Status: Launch Successful

Launch date: Sept. 21, 2000, 10:22 a.m. UTC

Rocket: Titan II SLV

Launch pad: Space Launch Complex 4W

Location: Vandenberg SFB, CA, USA

...

Latest news about this satellite

There are no fresh news available about this satellite. Check back as we update our databases every day.


Newsletter sign-up

Weekly statistics, charts and insights to help you stay on top of the space industry.